EW3247 Weather Reports


time (UTC)temp
C
wind
direction
speed
KPH
gust
KPH
rain 1hr
cm
rain 24hr
cm
rain mn
cm
humidity
%
barometer
mb
20260505170021 27 137 1.6 8.0 0.00 0.00 0.00 38 1011.1
20260505165027 27 96 1.6 6.4 0.00 0.00 0.00 42 1011.2
20260505164016 27 153 1.6 6.4 0.00 0.00 0.00 41 1011.3
20260505163050 26 193 1.6 4.8 0.00 0.00 0.00 42 1011.5
20260505162022 26 121 1.6 4.8 0.00 0.00 0.00 44 1011.5
20260505161110 26 167 1.6 4.8 0.00 0.00 0.00 43 1011.6
20260505153029 25 126 3.2 8.0 0.00 0.00 0.00 44 1011.8
20260505152021 25 86 1.6 4.8 0.00 0.00 0.00 47 1011.7
20260505151030 25 179 1.6 4.8 0.00 0.00 0.00 46 1011.8
20260505125029 20 201 1.6 3.2 0.00 0.00 0.00 55 1012.3
20260505124041 19 147 1.6 4.8 0.00 0.00 0.00 56 1012.3
20260505123031 18 109 0.0 3.2 0.00 0.00 0.00 57 1012.1
20260505122023 18 160 1.6 4.8 0.00 0.00 0.00 58 1012.2
20260505121030 18 18 1.6 3.2 0.00 0.00 0.00 59 1012.2
20260505120022 18 86 0.0 3.2 0.00 0.00 0.00 60 1012.1
20260505115030 17 100 0.0 1.6 0.00 0.00 0.00 60 1012.0
20260505114022 17 96 0.0 4.8 0.00 0.00 0.00 62 1012.0
20260505113029 17 136 0.0 1.6 0.00 0.00 0.00 63 1011.9
20260505112021 16 144 1.6 4.8 0.00 0.00 0.00 64 1011.7
20260505111049 16 88 0.0 1.6 0.00 0.00 0.00 65 1011.6
20260505102022 14 165 0.0 1.6 0.00 0.00 0.00 70 1011.3
20260505101030 15 52 0.0 1.6 0.00 0.00 0.00 69 1011.1
20260505100021 15 101 0.0 4.8 0.00 0.00 0.00 69 1010.9
20260505095029 15 103 0.0 4.8 0.00 0.00 0.00 69 1011.0
20260505094021 15 86 0.0 3.2 0.00 0.00 0.00 68 1010.7
20260505093051 15 71 0.0 1.6 0.00 0.00 0.00 68 1010.8
20260505092022 15 114 1.6 4.8 0.00 0.00 0.00 67 1010.8
20260505091030 15 58 0.0 1.6 0.00 0.00 0.00 68 1010.8
20260505090022 15 121 0.0 3.2 0.00 0.00 0.00 67 1010.8
20260505085030 15 97 1.6 6.4 0.00 0.00 0.00 66 1010.8
20260505084042 15 100 1.6 3.2 0.00 0.00 0.00 66 1010.8
20260505083030 15 127 1.6 3.2 0.00 0.00 0.00 65 1010.8
20260505082041 16 98 1.6 4.8 0.00 0.00 0.00 64 1010.9
20260505081029 16 138 1.6 6.4 0.00 0.00 0.00 64 1010.8
20260505080023 16 79 0.0 3.2 0.00 0.00 0.00 63 1010.8
20260505075031 16 110 0.0 3.2 0.00 0.00 0.00 63 1010.7
20260505074103 16 145 1.6 4.8 0.00 0.00 0.00 63 1010.7
20260505073030 16 128 1.6 4.8 0.00 0.00 0.00 63 1010.6
20260505072022 16 93 1.6 8.0 0.00 0.00 0.00 63 1010.6
20260505071050 15 77 0.0 3.2 0.00 0.00 0.00 66 1010.6
20260505070021 15 68 0.0 3.2 0.00 0.00 0.00 66 1010.4
20260505065029 15 52 0.0 1.6 0.00 0.00 0.00 67 1010.4
20260505064023 15 82 0.0 1.6 0.00 0.00 0.00 66 1010.5
20260505063031 16 84 0.0 1.6 0.00 0.00 0.00 66 1010.6
20260505062023 15 79 0.0 1.6 0.00 0.00 0.00 67 1010.6
20260505061030 16 81 0.0 3.2 0.00 0.00 0.00 66 1010.7
20260505060022 16 57 0.0 1.6 0.00 0.00 0.00 66 1010.6
20260505055030 16 76 0.0 3.2 0.00 0.00 0.00 64 1010.7
20260505054022 16 98 0.0 3.2 0.00 0.00 0.00 63 1010.7
20260505053018 17 100 0.0 1.6 0.00 0.00 0.00 62 1010.8
20260505052021 17 84 0.0 3.2 0.00 0.00 0.00 62 1010.8
20260505051051 17 93 0.0 4.8 0.00 0.00 0.00 61 1010.9
20260505041030 16 81 0.0 4.8 0.00 0.00 0.00 64 1010.5
20260505040022 15 0.0 0.0 0.00 0.00 0.00 65 1010.6
20260505035029 16 0.0 0.0 0.00 0.00 0.00 64 1010.6
20260505034103 16 0.0 0.0 0.00 0.00 0.00 63 1010.6
20260505033019 16 57 0.0 1.6 0.00 0.00 0.00 61 1010.6
20260505032023 16 74 0.0 4.8 0.00 0.00 0.00 62 1010.5
20260505031031 15 0.0 0.0 0.00 0.00 0.00 62 1010.6
20260505030022 16 0.0 0.0 0.00 0.00 0.00 62 1010.5
20260505025030 16 70 0.0 1.6 0.00 0.00 0.00 61 1010.7
20260505024022 16 0.0 0.0 0.00 0.00 0.00 60 1010.7
20260505023020 17 83 0.0 1.6 0.00 0.00 0.00 57 1010.5
20260505022103 18 81 0.0 1.6 0.00 0.00 0.00 54 1010.5
20260505021031 17 78 0.0 1.6 0.00 0.00 0.00 54 1010.5
20260505020023 18 76 0.0 1.6 0.00 0.00 0.00 53 1010.5
20260505015031 18 88 0.0 3.2 0.00 0.00 0.00 52 1010.4
20260505014022 18 94 1.6 4.8 0.00 0.00 0.00 51 1010.2
20260505013040 19 86 1.6 4.8 0.00 0.00 0.00 49 1010.1
20260505012042 19 88 1.6 4.8 0.00 0.00 0.00 49 1010.1
20260505011030 19 92 0.0 1.6 0.00 0.00 0.00 49 1010.1
20260505010022 19 75 0.0 1.6 0.00 0.00 0.00 49 1010.0
20260505005031 20 91 0.0 3.2 0.00 0.00 0.00 48 1010.0
20260505004023 20 77 0.0 1.6 0.00 0.00 0.00 46 1009.8
20260505003101 20 94 1.6 4.8 0.00 0.00 0.00 45 1009.8
20260505002023 21 121 1.6 8.0 0.00 0.00 0.00 44 1009.9
20260505001031 21 112 0.0 4.8 0.00 0.00 0.00 45 1009.7
20260505000022 21 143 0.0 4.8 0.00 0.00 0.00 44 1009.6
20260504235031 21 109 0.0 1.6 0.00 0.00 0.00 44 1009.7
20260504234022 21 89 1.6 4.8 0.00 0.00 0.00 43 1009.7
20260504233022 21 114 0.0 1.6 0.00 0.00 0.00 42 1009.5
20260504232024 22 88 1.6 9.7 0.00 0.00 0.00 40 1009.5
20260504231031 22 88 1.6 4.8 0.00 0.00 0.00 40 1009.6
20260504230023 23 105 1.6 8.0 0.00 0.00 0.00 38 1009.7
20260504225031 22 140 1.6 3.2 0.00 0.00 0.00 39 1009.6
20260504224023 22 97 1.6 3.2 0.00 0.00 0.00 39 1009.4
20260504223022 22 134 1.6 4.8 0.00 0.00 0.00 38 1009.5
20260504222022 22 131 1.6 6.4 0.00 0.00 0.00 37 1009.4
20260504221030 23 104 1.6 9.7 0.00 0.00 0.00 37 1009.4
20260504220042 23 122 1.6 6.4 0.00 0.00 0.00 37 1009.4
20260504215029 24 106 1.6 8.0 0.00 0.00 0.00 36 1009.5
20260504214023 25 102 1.6 9.7 0.00 0.00 0.00 36 1009.5
20260504213023 25 168 1.6 6.4 0.00 0.00 0.00 35 1009.6
20260504212023 25 125 1.6 6.4 0.00 0.00 0.00 35 1009.7
20260504211031 23 150 1.6 4.8 0.00 0.00 0.00 36 1009.6
20260504210022 23 103 3.2 9.7 0.00 0.00 0.00 36 1009.7
20260504205030 24 143 1.6 4.8 0.00 0.00 0.00 35 1009.7
20260504204024 24 149 1.6 4.8 0.00 0.00 0.00 35 1009.7
20260504203026 24 120 1.6 4.8 0.00 0.00 0.00 35 1009.9
20260504202023 24 113 1.6 8.0 0.00 0.00 0.00 36 1010.1
20260504201051 24 139 1.6 6.4 0.00 0.00 0.00 35 1010.0
20260504200023 25 109 1.6 6.4 0.00 0.00 0.00 35 1010.0
20260504195051 25 252 1.6 4.8 0.00 0.00 0.00 35 1010.2
20260504194042 25 178 1.6 3.2 0.00 0.00 0.00 34 1010.4
20260504193026 23 82 1.6 4.8 0.00 0.00 0.00 37 1010.7
20260504192016 24 138 3.2 8.0 0.00 0.00 0.00 37 1010.9
20260504191030 24 6 1.6 4.8 0.00 0.00 0.00 36 1011.0
20260504190024 24 178 3.2 9.7 0.00 0.00 0.00 36 1011.3
20260504185031 25 185 1.6 4.8 0.00 0.00 0.00 35 1011.3
20260504184024 23 141 1.6 4.8 0.00 0.00 0.00 37 1011.5
20260504183027 23 155 3.2 9.7 0.00 0.00 0.00 36 1011.5
20260504182017 23 154 3.2 11.3 0.00 0.00 0.00 36 1011.7
20260504181030 23 94 1.6 9.7 0.00 0.00 0.00 36 1011.8
20260504180042 23 180 1.6 4.8 0.00 0.00 0.00 34 1012.0
20260504175032 23 136 1.6 4.8 0.00 0.00 0.00 35 1012.1
20260504174024 22 165 1.6 6.4 0.00 0.00 0.00 36 1012.2
20260504173048 22 164 3.2 9.7 0.00 0.00 0.00 35 1012.2
20260504172018 22 167 1.6 4.8 0.00 0.00 0.00 36 1012.3
20260504171031 22 213 1.6 6.4 0.00 0.00 0.00 35 1012.5